CT2IRK-11 SANTAREM PT current weather conditions

sailwx.info

Wind from 045 at 5 knots gusting 10

Air temperature 11.1° C
Dewpoint 9.0° C

Last reported at 2018-Jan-23 07:09 UTC.
Time now 2018-Jan-23 08:08 UTC

Location: N 39°22' W 008°29'.
View on Google Maps.

See reports from other nearby stations

  
Tides and Currents Weather Stations Pressure Air Temp Water Temp Dewpoint Dewpoint Depression Visibility Wind Speed Wind Dir Waves Ship Positions
date/time (UTC)wind fromknots sea level pressurealtimeterstation pressurevisibilityair tempwater tempwave heightnotes
2018-Jan-23 07:09 045 5 gusting 10 11.1
2018-Jan-23 07:04 055 6 gusting 10 11.1
2018-Jan-23 06:59 045 3 gusting 10 11.1
2018-Jan-23 06:54 040 6 gusting 10 11.1
2018-Jan-23 06:49 059 4 gusting 10 11.1
2018-Jan-23 06:44 045 4 gusting 10 11.1
2018-Jan-23 06:39 035 5 gusting 10 11.1
2018-Jan-23 06:34 037 5 gusting 10 10.6
2018-Jan-23 06:29 045 5 gusting 10 10.6
2018-Jan-23 06:24 045 6 gusting 10 10.6
2018-Jan-23 06:19 045 5 gusting 10 10.6
2018-Jan-23 06:14 040 6 gusting 10 10.6
2018-Jan-23 06:09 028 6 gusting 10 10.6
2018-Jan-23 06:04 045 5 gusting 10 10.6
2018-Jan-23 05:59 069 5 gusting 10 10.6
2018-Jan-23 05:54 046 6 gusting 10 10.6
2018-Jan-23 05:49 051 5 gusting 10 10.6
2018-Jan-23 05:44 059 5 gusting 10 10.6
2018-Jan-23 05:39 065 4 gusting 10 10.6
2018-Jan-23 05:34 058 4 gusting 10 10.6
2018-Jan-23 05:29 043 4 gusting 10 10.6
2018-Jan-23 05:24 030 6 gusting 10 10.6
2018-Jan-23 05:19 010 5 gusting 10 10.6
2018-Jan-23 05:14 042 5 gusting 10 10.6
2018-Jan-23 05:09 045 6 gusting 10 11.1
2018-Jan-23 05:04 057 5 gusting 10 11.1
2018-Jan-23 04:59 023 6 gusting 10 11.1
2018-Jan-23 04:54 032 6 gusting 10 11.1
2018-Jan-23 04:49 041 6 gusting 10 11.1
2018-Jan-23 04:44 032 6 gusting 10 11.1
2018-Jan-23 04:39 034 7 gusting 10 11.1
2018-Jan-23 04:34 032 7 gusting 10 11.1
2018-Jan-23 04:29 009 6 gusting 10 11.1
2018-Jan-23 04:24 031 6 gusting 10 11.1
2018-Jan-23 04:19 032 7 gusting 10 11.1
2018-Jan-23 04:14 031 6 gusting 10 11.7
2018-Jan-23 04:09 022 6 gusting 10 11.7
2018-Jan-23 04:04 022 6 gusting 10 11.7
2018-Jan-23 03:59 035 6 gusting 10 11.7
2018-Jan-23 03:54 026 7 gusting 10 11.7
2018-Jan-23 03:49 059 6 gusting 10 11.7
2018-Jan-23 03:44 019 6 gusting 10 11.7
2018-Jan-23 03:39 034 6 gusting 10 11.7
2018-Jan-23 03:34 045 7 gusting 10 11.7
2018-Jan-23 03:29 041 7 gusting 10 11.7
2018-Jan-23 03:24 022 6 gusting 9 11.7
2018-Jan-23 03:19 032 6 gusting 9 11.7
2018-Jan-23 03:14 025 6 gusting 9 11.7
2018-Jan-23 03:09 045 6 gusting 9 11.7
2018-Jan-23 03:04 043 6 gusting 9 11.7
2018-Jan-23 02:59 010 6 gusting 9 11.1
2018-Jan-23 02:54 051 6 gusting 8 11.1
2018-Jan-23 02:49 032 6 gusting 8 11.1
2018-Jan-23 02:44 034 6 gusting 8 11.7
2018-Jan-23 02:39 023 7 gusting 8 11.7
2018-Jan-23 02:34 045 6 gusting 7 11.1
2018-Jan-23 02:29 022 6 gusting 7 11.1
2018-Jan-23 02:24 024 4 gusting 7 11.1
2018-Jan-23 02:19 041 5 gusting 7 11.1
2018-Jan-23 02:14 034 4 gusting 7 11.1
2018-Jan-23 02:09 047 5 gusting 7 11.1
2018-Jan-23 02:04 035 5 gusting 7 11.1
2018-Jan-23 01:59 058 5 gusting 7 11.1
2018-Jan-23 01:54 027 5 gusting 7 11.1
2018-Jan-23 01:49 027 6 gusting 7 11.1
2018-Jan-23 01:44 034 6 gusting 7 11.1
2018-Jan-23 01:39 045 6 gusting 7 11.1
2018-Jan-23 01:34 027 5 gusting 7 11.1
2018-Jan-23 01:29 022 4 gusting 7 10.6
2018-Jan-23 01:24 035 4 gusting 7 10.6
2018-Jan-23 01:19 032 5 gusting 7 10.6
2018-Jan-23 01:14 022 5 gusting 7 10.6
2018-Jan-23 01:09 032 5 gusting 7 10.6
2018-Jan-23 01:04 022 6 gusting 6 10.6
2018-Jan-23 00:59 056 5 gusting 6 10.0
2018-Jan-23 00:54 050 4 gusting 6 10.0
2018-Jan-23 00:49 016 2 gusting 6 9.4
2018-Jan-23 00:44 338 3 gusting 6 9.4
2018-Jan-23 00:39 349 3 gusting 6 9.4
2018-Jan-23 00:34 022 1 gusting 6 9.4
2018-Jan-23 00:29 326 3 gusting 6 10.0
2018-Jan-23 00:24 020 5 gusting 6 10.0
2018-Jan-23 00:19 013 6 gusting 6 10.0
2018-Jan-23 00:14 348 4 gusting 6 9.4
2018-Jan-23 00:09 349 4 gusting 5 9.4
2018-Jan-23 00:04 357 3 gusting 4 9.4
2018-Jan-22 23:59 006 2 gusting 16 10.0
2018-Jan-22 23:54 351 4 gusting 16 10.6
2018-Jan-22 23:49 009 4 gusting 16 10.6
2018-Jan-22 23:44 010 5 gusting 16 11.1
2018-Jan-22 23:39 060 6 gusting 16 11.1
2018-Jan-22 23:34 057 5 gusting 16 11.1
2018-Jan-22 23:29 049 5 gusting 16 11.1
2018-Jan-22 23:24 059 5 gusting 16 11.1
2018-Jan-22 23:19 042 6 gusting 16 11.1
2018-Jan-22 23:14 039 6 gusting 16 11.1
2018-Jan-22 23:09 050 6 gusting 16 11.1
2018-Jan-22 23:04 051 5 gusting 16 11.1
2018-Jan-22 22:59 025 5 gusting 16 11.1
2018-Jan-22 22:54 027 4 gusting 16 11.1
2018-Jan-22 22:49 016 5 gusting 16 11.1
2018-Jan-22 22:44 022 6 gusting 16 11.7
2018-Jan-22 22:39 056 7 gusting 16 11.7
2018-Jan-22 22:34 036 7 gusting 16 11.7
2018-Jan-22 22:29 028 7 gusting 16 11.7
2018-Jan-22 22:24 013 7 gusting 16 11.7
2018-Jan-22 22:19 022 7 gusting 16 11.7
2018-Jan-22 22:14 043 7 gusting 16 11.7
2018-Jan-22 22:09 036 7 gusting 16 11.7
2018-Jan-22 22:04 029 7 gusting 16 11.7
2018-Jan-22 21:59 023 8 gusting 16 11.7
2018-Jan-22 21:54 034 8 gusting 16 11.7
2018-Jan-22 21:49 022 7 gusting 16 11.7
2018-Jan-22 21:44 044 6 gusting 16 11.7
2018-Jan-22 21:39 022 6 gusting 16 11.7
2018-Jan-22 21:34 045 7 gusting 16 12.2
2018-Jan-22 21:29 045 6 gusting 16 12.2
2018-Jan-22 21:24 014 6 gusting 16 12.2
2018-Jan-22 21:19 035 8 gusting 16 12.2
2018-Jan-22 21:14 033 7 gusting 16 12.2
2018-Jan-22 21:09 034 6 gusting 16 12.2
2018-Jan-22 21:04 018 6 gusting 16 12.2
2018-Jan-22 20:59 011 6 gusting 16 12.2
2018-Jan-22 20:54 022 6 gusting 16 12.2
2018-Jan-22 20:49 358 8 gusting 16 12.2
2018-Jan-22 20:44 043 7 gusting 16 12.2
2018-Jan-22 20:39 12.2
2018-Jan-22 20:34 051 7 gusting 16 12.2
2018-Jan-22 20:29 022 6 gusting 16 12.2
2018-Jan-22 20:24 349 6 gusting 16 12.2
2018-Jan-22 20:19 035 6 gusting 16 12.2
2018-Jan-22 20:14 031 6 gusting 16 12.2
2018-Jan-22 20:09 359 6 gusting 16 12.2
2018-Jan-22 20:04 302 6 gusting 16 12.2
2018-Jan-22 19:59 354 6 gusting 16 12.2
2018-Jan-22 19:54 038 6 gusting 16 12.2
2018-Jan-22 19:49 045 7 gusting 16 12.2
2018-Jan-22 19:44 026 6 gusting 16 12.2
2018-Jan-22 19:39 029 6 gusting 16 12.2
2018-Jan-22 19:34 022 6 gusting 16 12.2
2018-Jan-22 19:29 022 4 gusting 16 12.2
2018-Jan-22 19:24 022 6 gusting 16 12.2
2018-Jan-22 19:19 344 4 gusting 16 12.2
2018-Jan-22 19:14 017 4 gusting 16 12.2
2018-Jan-22 19:09 354 3 gusting 16 12.2
2018-Jan-22 19:04 359 3 gusting 16 12.8
2018-Jan-22 18:59 356 4 gusting 16 12.8
2018-Jan-22 18:54 043 5 gusting 16 12.8
2018-Jan-22 18:49 030 5 gusting 16 12.8
2018-Jan-22 18:44 026 5 gusting 16 12.8
2018-Jan-22 18:39 321 5 gusting 16 12.8
2018-Jan-22 18:34 004 6 gusting 16 12.8
2018-Jan-22 18:29 022 6 gusting 16 13.3
2018-Jan-22 18:24 022 6 gusting 16 13.3
2018-Jan-22 18:19 021 6 gusting 16 13.3
2018-Jan-22 18:14 355 6 gusting 16 13.3
2018-Jan-22 18:09 345 5 gusting 16 13.3
2018-Jan-22 18:04 013 5 gusting 16 13.3
2018-Jan-22 17:59 022 5 gusting 16 13.9
2018-Jan-22 17:54 011 5 gusting 16 13.3
2018-Jan-22 17:49 016 5 gusting 16 13.9
2018-Jan-22 17:44 010 6 gusting 16 13.9
2018-Jan-22 17:39 357 6 gusting 16 13.9
2018-Jan-22 17:34 003 5 gusting 16 14.4
2018-Jan-22 17:29 010 6 gusting 16 14.4
2018-Jan-22 17:24 338 6 gusting 16 15.0
2018-Jan-22 17:19 013 6 gusting 16 15.0
2018-Jan-22 17:14 004 7 gusting 16 15.0
2018-Jan-22 17:09 022 6 gusting 16 15.0
2018-Jan-22 17:04 009 8 gusting 16 15.0
2018-Jan-22 16:59 014 9 gusting 16 15.6
2018-Jan-22 16:54 022 9 gusting 16 15.6
2018-Jan-22 16:49 15.6
2018-Jan-22 16:44 023 5 gusting 16 15.6
2018-Jan-22 16:39 338 7 gusting 16 15.6
2018-Jan-22 16:34 343 7 gusting 16 15.6
2018-Jan-22 16:28 312 8 gusting 16 15.6
2018-Jan-22 16:24 326 6 gusting 16 16.1
2018-Jan-22 16:19 013 7 gusting 16 16.1
2018-Jan-22 16:14 003 9 gusting 16 16.1
2018-Jan-22 16:09 338 8 gusting 16 16.1
2018-Jan-22 16:04 012 9 gusting 16 16.1
2018-Jan-22 15:58 022 9 gusting 16 16.1
2018-Jan-22 15:54 343 10 gusting 16 16.1
2018-Jan-22 15:49 001 9 gusting 16 16.1
2018-Jan-22 15:43 012 9 gusting 16 16.1
2018-Jan-22 15:39 009 9 gusting 16 16.1
2018-Jan-22 15:34 315 8 gusting 16 16.1
2018-Jan-22 15:28 027 10 gusting 16 16.1
2018-Jan-22 15:24 003 9 gusting 16 16.1
2018-Jan-22 15:19 341 9 gusting 16 16.1
2018-Jan-22 15:14 16.1
2018-Jan-22 15:09 313 8 gusting 16 16.7
2018-Jan-22 15:04 039 6 gusting 16 16.7
2018-Jan-22 14:58 046 10 gusting 16 16.7
2018-Jan-22 14:54 020 6 gusting 16 16.7
2018-Jan-22 14:49 031 9 gusting 16 16.7
2018-Jan-22 14:44 333 8 gusting 16 16.7
2018-Jan-22 14:39 318 9 gusting 16 16.7
2018-Jan-22 14:34 025 8 gusting 16 16.7
2018-Jan-22 14:29 338 8 gusting 16 16.7
2018-Jan-22 14:24 338 10 gusting 16 16.7
2018-Jan-22 14:19 338 8 gusting 16 17.2
2018-Jan-22 14:13 022 6 gusting 16 17.2
2018-Jan-22 14:09 002 7 gusting 16 17.2
2018-Jan-22 14:04 027 7 gusting 16 17.2
2018-Jan-22 13:59 013 7 gusting 16 17.2
2018-Jan-22 13:54 022 6 gusting 16 17.2
2018-Jan-22 13:49 009 6 gusting 16 17.2
2018-Jan-22 13:44 329 6 gusting 16 17.2
2018-Jan-22 13:38 357 6 gusting 16 16.7
2018-Jan-22 13:34 325 10 gusting 16 17.2
2018-Jan-22 13:28 313 6 gusting 16 17.2
2018-Jan-22 13:23 032 7 gusting 16 16.7
2018-Jan-22 13:19 340 9 gusting 16 16.7
2018-Jan-22 13:13 16.7
2018-Jan-22 13:09 348 6 gusting 16 16.7
2018-Jan-22 13:04 004 6 gusting 16 16.7
2018-Jan-22 12:59 016 6 gusting 16 16.7
2018-Jan-22 12:54 016 8 gusting 16 16.1
2018-Jan-22 12:48 342 9 gusting 16 16.7
2018-Jan-22 12:44 010 8 gusting 16 16.1
2018-Jan-22 12:38 005 6 gusting 16 16.1
2018-Jan-22 12:33 022 8 gusting 16 16.1
2018-Jan-22 12:28 021 9 gusting 16 16.1
2018-Jan-22 12:23 356 10 gusting 16 16.1
2018-Jan-22 12:19 035 8 gusting 16 16.1
2018-Jan-22 12:14 005 6 gusting 16 16.1
2018-Jan-22 12:08 010 6 gusting 16 16.1
2018-Jan-22 12:03 011 11 gusting 16 15.6
2018-Jan-22 11:58 340 11 gusting 16 16.1
2018-Jan-22 11:53 024 8 gusting 16 16.1
2018-Jan-22 11:49 338 12 gusting 16 16.1
2018-Jan-22 11:43 022 8 gusting 16 16.1
2018-Jan-22 11:38 320 8 gusting 16 15.6
2018-Jan-22 11:33 009 9 gusting 16 15.6
2018-Jan-22 11:28 350 6 gusting 16 15.6
2018-Jan-22 11:24 003 8 gusting 16 15.6
2018-Jan-22 11:19 033 6 gusting 16 15.6
2018-Jan-22 11:13 355 11 gusting 16 15.0
2018-Jan-22 11:08 350 7 gusting 16 15.6
2018-Jan-22 11:03 036 8 gusting 16 15.0
2018-Jan-22 10:58 012 7 gusting 16 15.0
2018-Jan-22 10:53 004 11 gusting 16 15.0
2018-Jan-22 10:48 022 10 gusting 15 15.0
2018-Jan-22 10:43 022 13 gusting 15 15.0
2018-Jan-22 10:39 032 10 gusting 15 14.4
2018-Jan-22 10:33 356 8 gusting 15 14.4
2018-Jan-22 10:28 074 8 gusting 15 14.4
2018-Jan-22 10:23 011 7 gusting 15 14.4
2018-Jan-22 10:18 045 8 gusting 15 14.4
2018-Jan-22 10:13 045 7 gusting 15 14.4
2018-Jan-22 10:08 034 8 gusting 15 14.4
2018-Jan-22 10:03 006 7 gusting 15 14.4
2018-Jan-22 09:58 034 9 gusting 15 13.9
2018-Jan-22 09:53 035 7 gusting 15 13.9
2018-Jan-22 09:48 003 8 gusting 15 13.9
2018-Jan-22 09:43 354 10 gusting 15 13.9
2018-Jan-22 09:38 338 11 gusting 15 13.9
2018-Jan-22 09:33 348 10 gusting 15 13.3
2018-Jan-22 09:28 13.3
2018-Jan-22 09:23 338 10 gusting 15 13.3
2018-Jan-22 09:18 026 9 gusting 15 13.3
2018-Jan-22 09:13 358 9 gusting 15 13.3
2018-Jan-22 09:08 040 11 gusting 15 13.3
2018-Jan-22 09:03 007 9 gusting 15 12.8
2018-Jan-22 08:58 022 6 gusting 15 12.8
2018-Jan-22 08:53 033 11 gusting 15 12.8
2018-Jan-22 08:48 009 6 gusting 15 12.8
2018-Jan-22 08:43 026 8 gusting 15 12.8
2018-Jan-22 08:38 033 9 gusting 15 12.8
2018-Jan-22 08:33 021 9 gusting 15 12.8
2018-Jan-22 08:28 034 7 gusting 15 12.8
2018-Jan-22 08:23 022 9 gusting 15 12.2
2018-Jan-22 08:18 009 7 gusting 15 12.2
2018-Jan-22 08:13 022 6 gusting 15 12.2
2018-Jan-22 08:08 022 9 gusting 15 12.8
2018-Jan-22 08:03 010 9 gusting 15 12.8
2018-Jan-22 07:58 045 9 gusting 15 12.8
2018-Jan-22 07:53 013 8 gusting 15 12.2
2018-Jan-22 07:48 011 8 gusting 15 12.2
2018-Jan-22 07:43 009 8 gusting 15 12.8
2018-Jan-22 07:38 020 8 gusting 15 12.8
2018-Jan-22 07:33 022 8 gusting 15 12.8
2018-Jan-22 07:28 030 9 gusting 15 12.8
2018-Jan-22 07:23 339 9 gusting 15 12.8
2018-Jan-22 07:18 036 8 gusting 15 12.2
2018-Jan-22 07:13 357 6 gusting 15 12.2
2018-Jan-22 07:08 331 7 gusting 15 12.2
2018-Jan-22 07:03 350 6 gusting 15 12.2
2018-Jan-22 06:58 024 6 gusting 15 12.2
2018-Jan-22 06:53 357 6 gusting 15 12.8
2018-Jan-22 06:48 022 7 gusting 15 12.2
2018-Jan-22 06:43 009 7 gusting 15 12.2
2018-Jan-22 06:38 013 9 gusting 15 12.8
2018-Jan-22 06:33 017 6 gusting 15 12.8
2018-Jan-22 06:28 041 7 gusting 15 12.8
2018-Jan-22 06:23 033 7 gusting 15 12.2
2018-Jan-22 06:18 010 6 gusting 15 12.2
2018-Jan-22 06:13 022 5 gusting 15 12.2
2018-Jan-22 06:08 049 5 gusting 15 12.2
2018-Jan-22 06:03 343 5 gusting 15 12.8
2018-Jan-22 05:58 021 9 gusting 15 12.8
2018-Jan-22 05:53 010 8 gusting 15 12.8
2018-Jan-22 05:48 338 8 gusting 15 12.8
2018-Jan-22 05:43 018 9 gusting 15 12.8
2018-Jan-22 05:38 007 10 gusting 15 12.2
2018-Jan-22 05:33 003 7 gusting 15 12.2
2018-Jan-22 05:28 357 9 gusting 15 12.2
2018-Jan-22 05:23 011 8 gusting 13 12.2
2018-Jan-22 05:18 354 10 gusting 13 12.2
2018-Jan-22 05:13 353 6 gusting 13 11.7
2018-Jan-22 05:08 041 2 gusting 13 10.6
2018-Jan-22 05:03 303 5 gusting 13 10.6
2018-Jan-22 04:58 335 3 gusting 13 10.6
2018-Jan-22 04:53 331 2 gusting 13 10.6
2018-Jan-22 04:48 307 2 gusting 13 10.6
2018-Jan-22 04:43 003 2 gusting 13 10.6
2018-Jan-22 04:38 338 3 gusting 13 10.6
2018-Jan-22 04:33 328 2 gusting 13 11.1
2018-Jan-22 04:28 027 3 gusting 13 11.1
2018-Jan-22 04:23 045 4 gusting 13 11.1
2018-Jan-22 04:18 022 5 gusting 13 11.1
2018-Jan-22 04:13 035 5 gusting 13 11.1
2018-Jan-22 04:08 045 4 gusting 13 11.1
2018-Jan-22 04:03 022 4 gusting 13 11.1
2018-Jan-22 03:58 033 4 gusting 13 11.1
2018-Jan-22 03:53 032 6 gusting 13 11.1
2018-Jan-22 03:48 045 3 gusting 13 11.1
2018-Jan-22 03:43 022 3 gusting 13 11.1
2018-Jan-22 03:38 034 4 gusting 13 11.1
2018-Jan-22 03:33 013 3 gusting 13 11.1
2018-Jan-22 03:28 035 3 gusting 13 11.1
2018-Jan-22 03:23 047 4 gusting 13 11.7
2018-Jan-22 03:18 032 5 gusting 13 11.7
2018-Jan-22 03:13 038 4 gusting 13 11.7
2018-Jan-22 03:08 022 6 gusting 13 11.7
2018-Jan-22 03:03 011 7 gusting 13 11.7
2018-Jan-22 02:58 010 7 gusting 13 11.7
2018-Jan-22 02:53 027 7 gusting 13 11.7
2018-Jan-22 02:48 011 9 gusting 13 11.7
2018-Jan-22 02:43 004 8 gusting 11 11.7
2018-Jan-22 02:38 036 8 gusting 11 11.1
2018-Jan-22 02:33 040 8 gusting 11 11.1
2018-Jan-22 02:28 343 2 gusting 11 10.6
2018-Jan-22 02:23 002 6 gusting 11 10.6
2018-Jan-22 02:18 348 4 gusting 11 10.0
2018-Jan-22 02:13 326 4 gusting 11 10.0
2018-Jan-22 02:08 337 4 gusting 11 10.6
2018-Jan-22 02:03 022 5 gusting 7 10.6
2018-Jan-22 01:58 040 6 gusting 7 9.4
2018-Jan-22 01:53 027 2 gusting 5 9.4
2018-Jan-22 01:48 034 2 gusting 5 9.4
2018-Jan-22 01:43 055 2 gusting 5 9.4
2018-Jan-22 01:38 009 2 gusting 4 9.4
2018-Jan-22 01:33 024 1 gusting 4 9.4
2018-Jan-22 01:28 068 1 gusting 4 9.4
2018-Jan-22 01:23 078 1 gusting 4 9.4
2018-Jan-22 01:18 058 0 gusting 4 9.4
2018-Jan-22 01:13 062 2 gusting 4 9.4
2018-Jan-22 01:08 052 3 gusting 4 9.4
2018-Jan-22 01:03 058 2 gusting 2 9.4
2018-Jan-22 00:58 056 2 gusting 2 8.9
2018-Jan-22 00:53 068 1 gusting 1 8.9
2018-Jan-22 00:48 090 8.3
2018-Jan-22 00:43 090 8.3
2018-Jan-22 00:38 090 8.9
2018-Jan-22 00:33 090 8.9
2018-Jan-22 00:28 090 8.9
2018-Jan-22 00:23 112 8.3
2018-Jan-22 00:18 112 8.3
2018-Jan-22 00:13 180 8.3
2018-Jan-22 00:08 120 8.9
2018-Jan-22 00:03 192 8.9
2018-Jan-21 23:58 175 9.4
2018-Jan-21 23:53 090 9.4
2018-Jan-21 23:48 112 2 gusting 12 9.4
2018-Jan-21 23:43 125 2 gusting 12 9.4
2018-Jan-21 23:38 135 3 gusting 12 8.9
2018-Jan-21 23:33 123 2 gusting 12 8.9
2018-Jan-21 23:28 135 8.9
2018-Jan-21 23:23 135 8.9
2018-Jan-21 23:18 147 9.4
2018-Jan-21 23:13 158 9.4
2018-Jan-21 23:08 180 2 gusting 12 9.4
2018-Jan-21 23:03 180 0 gusting 12 9.4
2018-Jan-21 22:58 173 2 gusting 12 8.9
2018-Jan-21 22:53 180 2 gusting 12 8.3
2018-Jan-21 22:48 205 2 gusting 12 8.9
2018-Jan-21 22:43 180 2 gusting 12 8.9
2018-Jan-21 22:38 207 2 gusting 12 8.9
2018-Jan-21 22:33 215 2 gusting 12 8.9
2018-Jan-21 22:28 202 2 gusting 12 8.9
2018-Jan-21 22:23 180 2 gusting 12 9.4
2018-Jan-21 22:18 346 10.0
2018-Jan-21 22:13 019 10.0
2018-Jan-21 22:08 017 9.4
2018-Jan-21 22:03 356 9.4
2018-Jan-21 21:58 326 9.4
2018-Jan-21 21:53 045 9.4
2018-Jan-21 21:48 047 9.4
2018-Jan-21 21:43 090 9.4
2018-Jan-21 21:38 090 9.4
2018-Jan-21 21:33 202 10.0
2018-Jan-21 21:28 202 10.0
2018-Jan-21 21:23 222 10.0
2018-Jan-21 21:18 180 10.0
2018-Jan-21 21:13 180 10.0
2018-Jan-21 21:08 180 10.6
2018-Jan-21 21:03 180 10.6
2018-Jan-21 20:58 180 10.6
2018-Jan-21 20:53 201 10.6
2018-Jan-21 20:48 225 11.1
2018-Jan-21 20:43 022 11.1
2018-Jan-21 20:38 035 11.7
2018-Jan-21 20:33 022 11.7
2018-Jan-21 20:28 022 11.7
2018-Jan-21 20:23 047 11.7
2018-Jan-21 20:18 063 11.7
2018-Jan-21 20:13 045 11.7
2018-Jan-21 20:08 045 11.7
2018-Jan-21 20:03 338 12.2
2018-Jan-21 19:58 307 2 gusting 12 12.2
2018-Jan-21 19:53 282 3 gusting 12 12.2
2018-Jan-21 19:48 315 2 gusting 12 12.8
2018-Jan-21 19:43 329 3 gusting 12 12.8
2018-Jan-21 19:38 301 4 gusting 12 12.8
2018-Jan-21 19:33 306 2 gusting 12 13.3
2018-Jan-21 19:28 316 3 gusting 12 13.3
2018-Jan-21 19:23 350 4 gusting 12 13.3
2018-Jan-21 19:18 315 3 gusting 12 13.3
2018-Jan-21 19:13 338 4 gusting 12 13.3
2018-Jan-21 19:08 306 4 gusting 12 13.3
2018-Jan-21 19:03 312 5 gusting 12 13.3
2018-Jan-21 18:58 356 5 gusting 12 13.9
2018-Jan-21 18:53 338 5 gusting 12 13.9
2018-Jan-21 18:48 351 4 gusting 12 13.9
2018-Jan-21 18:43 315 5 gusting 12 13.9
2018-Jan-21 18:38 341 5 gusting 12 13.9
2018-Jan-21 18:33 015 4 gusting 12 13.9
2018-Jan-21 18:28 304 4 gusting 12 13.9
2018-Jan-21 18:23 315 3 gusting 12 13.9
2018-Jan-21 18:18 349 3 gusting 12 14.4
2018-Jan-21 18:13 329 3 gusting 12 14.4
2018-Jan-21 18:08 338 2 gusting 12 14.4
2018-Jan-21 18:03 326 3 gusting 12 14.4
2018-Jan-21 17:58 033 3 gusting 12 14.4
2018-Jan-21 17:53 338 4 gusting 12 14.4
2018-Jan-21 17:48 348 3 gusting 12 14.4
2018-Jan-21 17:43 001 6 gusting 12 14.4
2018-Jan-21 17:38 005 4 gusting 12 14.4
2018-Jan-21 17:33 348 6 gusting 12 14.4
2018-Jan-21 17:28 349 6 gusting 12 14.4
2018-Jan-21 17:23 339 7 gusting 12 15.0
2018-Jan-21 17:18 351 6 gusting 12 15.0
2018-Jan-21 17:13 15.0
2018-Jan-21 17:08 009 9 gusting 12 15.0
2018-Jan-21 17:03 15.0
2018-Jan-21 16:58 325 6 gusting 12 15.0
2018-Jan-21 16:53 328 6 gusting 12 15.0
2018-Jan-21 16:48 022 7 gusting 12 15.0
2018-Jan-21 16:43 017 6 gusting 12 15.0
2018-Jan-21 16:38 358 8 gusting 12 15.0
2018-Jan-21 16:33 031 6 gusting 11 15.6
2018-Jan-21 16:28 020 6 gusting 11 15.6
2018-Jan-21 16:23 029 6 gusting 11 15.6
2018-Jan-21 16:18 019 6 gusting 11 15.6
2018-Jan-21 16:13 026 7 gusting 11 15.6
2018-Jan-21 16:08 332 6 gusting 11 15.6
2018-Jan-21 16:03 003 6 gusting 11 15.6
2018-Jan-21 15:58 022 6 gusting 11 15.6
2018-Jan-21 15:53 009 6 gusting 11 15.6
2018-Jan-21 15:48 004 6 gusting 11 15.6
2018-Jan-21 15:43 034 6 gusting 11 15.6
2018-Jan-21 15:38 351 6 gusting 11 15.6
2018-Jan-21 15:33 004 5 gusting 11 15.6
2018-Jan-21 15:28 310 5 gusting 11 15.6
2018-Jan-21 15:23 010 7 gusting 11 15.6
2018-Jan-21 15:18 011 7 gusting 11 15.6
2018-Jan-21 15:13 029 7 gusting 11 15.6
2018-Jan-21 15:08 005 5 gusting 11 15.6
2018-Jan-21 15:03 011 6 gusting 11 16.1
2018-Jan-21 14:58 347 6 gusting 11 16.1
2018-Jan-21 14:53 358 6 gusting 11 16.1
2018-Jan-21 14:48 338 6 gusting 11 16.1
2018-Jan-21 14:43 018 5 gusting 11 16.1
2018-Jan-21 14:38 041 7 gusting 11 16.1
2018-Jan-21 14:33 356 8 gusting 11 16.1
2018-Jan-21 14:28 355 6 gusting 11 16.1
2018-Jan-21 14:23 011 6 gusting 11 16.1
2018-Jan-21 14:18 358 6 gusting 11 16.1
2018-Jan-21 14:13 354 6 gusting 11 16.1
2018-Jan-21 14:08 358 6 gusting 11 16.1
2018-Jan-21 14:03 338 7 gusting 11 16.1
2018-Jan-21 13:58 350 6 gusting 11 16.1
2018-Jan-21 13:53 348 7 gusting 11 16.1
2018-Jan-21 13:48 351 8 gusting 11 16.1
2018-Jan-21 13:43 031 7 gusting 11 16.1
2018-Jan-21 13:38 338 6 gusting 11 16.1
2018-Jan-21 13:33 012 7 gusting 11 16.1
2018-Jan-21 13:28 028 9 gusting 11 16.1
2018-Jan-21 13:23 356 6 gusting 10 16.1
2018-Jan-21 13:18 324 6 gusting 10 16.1
2018-Jan-21 13:13 011 6 gusting 10 16.1
2018-Jan-21 13:08 352 7 gusting 10 16.1
2018-Jan-21 13:03 002 6 gusting 10 16.1
2018-Jan-21 12:58 16.1
2018-Jan-21 12:53 009 5 gusting 10 16.1
2018-Jan-21 12:48 338 7 gusting 10 16.1
2018-Jan-21 12:43 338 6 gusting 10 15.6
2018-Jan-21 12:38 022 5 gusting 10 15.6
2018-Jan-21 12:33 15.6
2018-Jan-21 12:28 350 6 gusting 10 15.6
2018-Jan-21 12:23 355 6 gusting 10 15.6
2018-Jan-21 12:18 011 6 gusting 10 15.6
2018-Jan-21 12:13 012 6 gusting 10 15.6
2018-Jan-21 12:08 030 8 gusting 10 15.0
2018-Jan-21 12:03 027 7 gusting 10 15.0
2018-Jan-21 11:58 002 7 gusting 10 15.0
2018-Jan-21 11:53 350 7 gusting 10 15.0
2018-Jan-21 11:48 338 7 gusting 10 15.0
2018-Jan-21 11:43 014 6 gusting 10 15.0
2018-Jan-21 11:38 354 6 gusting 9 15.0
2018-Jan-21 11:33 013 6 gusting 9 15.0
2018-Jan-21 11:28 357 6 gusting 9 14.4
2018-Jan-21 11:23 338 7 gusting 9 14.4
2018-Jan-21 11:18 355 6 gusting 9 14.4
2018-Jan-21 11:13 14.4
2018-Jan-21 11:08 041 5 gusting 7 14.4
2018-Jan-21 11:03 317 5 gusting 7 14.4
2018-Jan-21 10:58 009 6 gusting 7 13.9
2018-Jan-21 10:53 349 6 gusting 7 13.9
2018-Jan-21 10:48 291 3 gusting 6 13.3
2018-Jan-21 10:43 194 2 gusting 6 12.2
2018-Jan-21 10:38 186 12.2
2018-Jan-21 10:33 192 0 gusting 6 11.7
2018-Jan-21 10:28 189 12.2
2018-Jan-21 10:23 252 2 gusting 6 11.7
2018-Jan-21 10:18 264 11.7
2018-Jan-21 10:13 225 1 gusting 6 11.1
2018-Jan-21 10:08 261 11.1
2018-Jan-21 10:03 270 11.1
2018-Jan-21 09:58 286 10.6
2018-Jan-21 09:53 237 10.6
2018-Jan-21 09:48 238 10.0
2018-Jan-21 09:43 180 10.0
2018-Jan-21 09:38 172 9.4
2018-Jan-21 09:33 197 9.4
2018-Jan-21 09:28 208 9.4
2018-Jan-21 09:23 190 8.9
2018-Jan-21 09:18 225 8.9
2018-Jan-21 09:13 114 0 gusting 6 8.9
2018-Jan-21 09:08 257 2 gusting 6 8.9
2018-Jan-21 09:03 204 8.9
2018-Jan-21 08:58 270 8.3
2018-Jan-21 08:53 151 8.3
2018-Jan-21 08:48 315 8.3
2018-Jan-21 08:43 260 0 gusting 6 8.3
2018-Jan-21 08:38 303 2 gusting 6 8.3
2018-Jan-21 08:33 171 1 gusting 6 8.3
2018-Jan-21 08:28 203 1 gusting 6 8.3
2018-Jan-21 08:23 180 8.3
2018-Jan-21 08:18 062 7.8
2018-Jan-21 08:13 180 0 gusting 6 7.8
2018-Jan-21 08:08 180 2 gusting 6 7.8
2018-Jan-21 08:03 090 7.8